This is the latest recevied weather packets stored in our database for station/object KB3UMW-13. If no packets are shown the sender has not sent any weather packets the latest 10 day(s).
| Time | Temp. | Humidity | Pressure | Rain* | Wind** | Luminosity | Snow |
|---|---|---|---|---|---|---|---|
| 1778003441 | 23.89° C | 40% | 1012.1 hPa | 0 mm | - | 777 W/m² | - |
| 1778003138 | 23.33° C | 39% | 1011.6 hPa | 0 mm | - | 844 W/m² | - |
| 1778002833 | 22.78° C | 38% | 1011.9 hPa | 0 mm | - | 789 W/m² | - |
| 1778002531 | 22.78° C | 41% | 1011.8 hPa | 0 mm | - | 803 W/m² | - |
| 1778002228 | 23.33° C | 44% | 1011.9 hPa | 0 mm | - | 848 W/m² | - |
| 1778001925 | 23.33° C | 41% | 1012 hPa | 0 mm | - | 849 W/m² | - |
| 1778001621 | 22.78° C | 45% | 1011.8 hPa | 0 mm | - | 856 W/m² | - |
| 1778001316 | 23.89° C | 43% | 1012 hPa | 0 mm | - | 867 W/m² | - |
| 1778001014 | 22.78° C | 44% | 1011.8 hPa | 0 mm | - | 885 W/m² | - |
| 1778000710 | 22.78° C | 46% | 1012.1 hPa | 0 mm | - | 258 W/m² | - |
| 1778000406 | 22.22° C | 45% | 1012 hPa | 0 mm | - | 860 W/m² | - |
| 1778000102 | 22.78° C | 47% | 1012.1 hPa | 0 mm | - | 849 W/m² | - |
| 1777999797 | 22.22° C | 46% | 1012.1 hPa | 0 mm | - | 822 W/m² | - |
| 1777999494 | 21.67° C | 45% | 1012 hPa | 0 mm | - | 863 W/m² | - |
| 1777999192 | 22.22° C | 45% | 1012.6 hPa | 0 mm | - | 905 W/m² | - |
| 1777998890 | 21.67° C | 49% | 1012.3 hPa | 0 mm | - | 863 W/m² | - |
| 1777998590 | 23.33° C | 47% | 1012.5 hPa | 0 mm | - | 810 W/m² | - |
| 1777998285 | 22.78° C | 47% | 1012.6 hPa | 0 mm | - | 841 W/m² | - |
| 1777997982 | 21.67° C | 48% | 1012.8 hPa | 0 mm | - | 813 W/m² | - |
| 1777997678 | 22.22° C | 45% | 1012.8 hPa | 0 mm | - | 835 W/m² | - |
| 1777997376 | 22.22° C | 43% | 1012.9 hPa | 0 mm | - | 829 W/m² | - |
| 1777997074 | 21.67° C | 53% | 1012.8 hPa | 0 mm | - | 812 W/m² | - |
| 1777996770 | 20° C | 49% | 1012.8 hPa | 0 mm | - | 873 W/m² | - |
| 1777996467 | 20.56° C | 50% | 1013 hPa | 0 mm | - | 890 W/m² | - |
| 1777996164 | 21.11° C | 49% | 1013.1 hPa | 0 mm | - | 891 W/m² | - |
* Rain latest hour (hover to see other rain measurements)
** Current wind speed in m/s (hover to see current wind gust speed)